sat.trackr.live / text

‹ back to catalog

FALCONSAT-6

NORAD 43815 · 2018-099BK

PAYLOAD ACTIVE UNKNOWN

§ Identity

Operator
Country
US
Launch date
2018-12-03
Launch site
AFWTR
Launch vehicle
Mass (kg)
RCS (m²)

External: N2YO · Heavens-Above · Gunter

§ Orbital elements

Epoch: 2026-05-25T04:31:58.213344Z

Period
94.29 min
Inclination
97.3803°
Eccentricity
0.0016108
Mean motion
15.27129639 rev/d
Perigee alt
473.3 km
Apogee alt
495.5 km
Semi-major
6,862.5 km
B*
1.2858e-4
RAAN
221.4436°
Arg perigee
29.9662°
Mean anomaly
354.0412°
Rev number
41,022

§ Raw data

FALCONSAT-61 43815U 18099BK  26145.18886821  .00003358  00000+0  12858-3 0  99932 43815  97.3803 221.4436 0016108  29.9662 354.0412 15.27129639410228

JSON: /api/v1/satellites/43815 · /tle

For live sub-satellite position, see the globe view (requires WebGL).

§ Visibility from observer

Set your observer location to see the next 7 days of passes ≥ 10°. The values pass through the URL so the page stays shareable.

No JS? Fill the form by hand. The geolocation button needs JavaScript.